| time (UTC) | temp C | wind direction | speed KPH | gust KPH | rain 1hr cm | rain 24hr cm | rain mn cm | humidity % | barometer mb |
| 20260509053038 | 18 | 357 | 0.0 | 8.0 | 0.00 | 0.00 | 0.00 | 51 | 1024.6 |
| 20260509051537 | 18 | 142 | 0.0 | 0.0 | 0.00 | 0.00 | 0.00 | 48 | 1024.6 |
| 20260509050030 | 18 | 165 | 0.0 | 0.0 | 0.00 | 0.00 | 0.00 | 47 | 1024.6 |
| 20260509044528 | 18 | 163 | 0.0 | 0.0 | 0.00 | 0.00 | 0.00 | 48 | 1024.7 |
| 20260509043027 | 18 | 288 | 0.0 | 0.0 | 0.00 | 0.00 | 0.00 | 48 | 1024.6 |
| 20260509041525 | 18 | 266 | 0.0 | 0.0 | 0.00 | 0.00 | 0.00 | 49 | 1024.6 |
| 20260509040024 | 18 | 85 | 0.0 | 0.0 | 0.00 | 0.00 | 0.00 | 49 | 1024.7 |
| 20260509034524 | 18 | 292 | 0.0 | 8.0 | 0.00 | 0.00 | 0.00 | 51 | 1024.8 |
| 20260509033018 | 17 | 50 | 0.0 | 1.6 | 0.00 | 0.00 | 0.00 | 52 | 1024.8 |
| 20260509031514 | 17 | 293 | 0.0 | 8.0 | 0.00 | 0.00 | 0.00 | 53 | 1024.9 |
| 20260509030012 | 16 | 102 | 0.0 | 11.3 | 0.00 | 0.00 | 0.00 | 54 | 1025.2 |
| 20260509024509 | 16 | 69 | 1.6 | 14.5 | 0.00 | 0.00 | 0.00 | 56 | 1025.4 |
| 20260509023007 | 16 | 57 | 1.6 | 8.0 | 0.00 | 0.00 | 0.00 | 58 | 1025.6 |
| 20260509021504 | 15 | 168 | 1.6 | 8.0 | 0.00 | 0.00 | 0.00 | 57 | 1025.8 |
| 20260509020004 | 15 | 171 | 6.4 | 12.9 | 0.00 | 0.00 | 0.00 | 57 | 1026.2 |
| 20260509014502 | 15 | 113 | 4.8 | 19.3 | 0.00 | 0.00 | 0.00 | 59 | 1026.4 |
| 20260509013109 | 15 | 110 | 3.2 | 19.3 | 0.00 | 0.00 | 0.00 | 60 | 1026.6 |
| 20260509011556 | 14 | 83 | 4.8 | 11.3 | 0.00 | 0.00 | 0.00 | 63 | 1026.7 |
| 20260509010054 | 14 | 67 | 3.2 | 12.9 | 0.00 | 0.00 | 0.00 | 63 | 1026.9 |
| 20260509004553 | 13 | 62 | 9.7 | 16.1 | 0.00 | 0.00 | 0.00 | 65 | 1027.2 |
| 20260509003048 | 13 | 70 | 4.8 | 17.7 | 0.00 | 0.00 | 0.00 | 67 | 1027.4 |
| 20260509001545 | 12 | 103 | 6.4 | 20.9 | 0.00 | 0.00 | 0.00 | 67 | 1027.5 |
| 20260509000040 | 11 | 103 | 9.7 | 17.7 | 0.00 | 0.00 | 0.00 | 67 | 1027.6 |
| 20260508234536 | 10 | 79 | 6.4 | 17.7 | 0.00 | 0.00 | 0.00 | 75 | 1027.8 |
| 20260508233042 | 8 | 105 | 9.7 | 16.1 | 0.00 | 0.00 | 0.00 | 86 | 1027.8 |
| 20260508231528 | 6 | 108 | 6.4 | 14.5 | 0.00 | 0.00 | 0.00 | 93 | 1027.9 |
| 20260508230023 | 4 | 76 | 0.0 | 1.6 | 0.00 | 0.00 | 0.00 | 93 | 1028.1 |
| 20260508224518 | 2 | 198 | 0.0 | 0.0 | 0.00 | 0.00 | 0.00 | 93 | 1028.0 |
| 20260508223022 | 0 | 197 | 0.0 | 0.0 | 0.00 | 0.00 | 0.00 | 93 | 1027.9 |
| 20260508221509 | 0 | 197 | 0.0 | 0.0 | 0.00 | 0.00 | 0.00 | 92 | 1027.9 |
| 20260508220005 | -2 | 197 | 0.0 | 3.2 | 0.00 | 0.00 | 0.00 | 90 | 1027.9 |
| 20260508214503 | -2 | 197 | 0.0 | 0.0 | 0.00 | 0.00 | 0.00 | 88 | 1027.7 |
| 20260508213101 | -3 | 197 | 0.0 | 0.0 | 0.00 | 0.00 | 0.00 | 87 | 1027.4 |
| 20260508211602 | -4 | 197 | 0.0 | 0.0 | 0.00 | 0.00 | 0.00 | 85 | 1027.2 |
| 20260508210056 | -4 | 197 | 0.0 | 0.0 | 0.00 | 0.00 | 0.00 | 86 | 1026.9 |
| 20260508204555 | -4 | 197 | 0.0 | 0.0 | 0.00 | 0.00 | 0.00 | 85 | 1026.6 |
| 20260508203055 | -4 | 197 | 0.0 | 0.0 | 0.00 | 0.00 | 0.00 | 85 | 1026.3 |
| 20260508201548 | -4 | 197 | 0.0 | 0.0 | 0.00 | 0.00 | 0.00 | 85 | 1026.0 |
| 20260508200052 | -4 | 197 | 0.0 | 0.0 | 0.00 | 0.00 | 0.00 | 85 | 1025.9 |
| 20260508194541 | -4 | 197 | 0.0 | 0.0 | 0.00 | 0.00 | 0.00 | 85 | 1025.7 |
| 20260508193042 | -3 | 197 | 0.0 | 0.0 | 0.00 | 0.00 | 0.00 | 85 | 1025.5 |
| 20260508191541 | -3 | 197 | 0.0 | 0.0 | 0.00 | 0.00 | 0.00 | 86 | 1025.3 |
| 20260508190035 | -3 | 197 | 0.0 | 0.0 | 0.00 | 0.00 | 0.00 | 86 | 1025.2 |
| 20260508184534 | -3 | 197 | 0.0 | 0.0 | 0.00 | 0.00 | 0.00 | 86 | 1025.0 |
| 20260508183031 | -3 | 197 | 0.0 | 0.0 | 0.00 | 0.00 | 0.00 | 86 | 1025.1 |
| 20260508181531 | -3 | 197 | 0.0 | 0.0 | 0.00 | 0.00 | 0.00 | 86 | 1025.0 |
| 20260508180028 | -3 | 197 | 0.0 | 0.0 | 0.00 | 0.00 | 0.00 | 86 | 1025.0 |
| 20260508174529 | -3 | 197 | 0.0 | 0.0 | 0.00 | 0.00 | 0.00 | 86 | 1025.1 |
| 20260508173025 | -3 | 197 | 0.0 | 0.0 | 0.00 | 0.00 | 0.00 | 86 | 1025.0 |
| 20260508171527 | -3 | 197 | 0.0 | 0.0 | 0.00 | 0.00 | 0.00 | 86 | 1025.0 |
| 20260508170022 | -3 | 197 | 0.0 | 0.0 | 0.00 | 0.00 | 0.00 | 86 | 1024.8 |
| 20260508164519 | -3 | 197 | 0.0 | 0.0 | 0.00 | 0.00 | 0.00 | 86 | 1024.8 |
| 20260508163017 | -3 | 197 | 0.0 | 0.0 | 0.00 | 0.00 | 0.00 | 86 | 1025.0 |
| 20260508161515 | -2 | 197 | 0.0 | 0.0 | 0.00 | 0.00 | 0.00 | 86 | 1024.9 |
| 20260508160017 | -2 | 197 | 0.0 | 0.0 | 0.00 | 0.00 | 0.00 | 86 | 1024.8 |
| 20260508154511 | -2 | 197 | 0.0 | 0.0 | 0.00 | 0.00 | 0.00 | 86 | 1024.8 |
| 20260508153009 | -2 | 197 | 0.0 | 0.0 | 0.00 | 0.00 | 0.00 | 86 | 1024.7 |
| 20260508151508 | -2 | 197 | 0.0 | 0.0 | 0.00 | 0.00 | 0.00 | 86 | 1024.7 |
| 20260508150006 | -2 | 197 | 0.0 | 0.0 | 0.00 | 0.00 | 0.00 | 87 | 1024.6 |
| 20260508144505 | -2 | 197 | 0.0 | 0.0 | 0.00 | 0.00 | 0.00 | 87 | 1024.6 |
| 20260508143002 | -1 | 197 | 0.0 | 0.0 | 0.00 | 0.00 | 0.00 | 87 | 1024.6 |
| 20260508141601 | -1 | 197 | 0.0 | 0.0 | 0.00 | 0.00 | 0.00 | 87 | 1024.5 |
| 20260508140115 | -1 | 197 | 0.0 | 0.0 | 0.00 | 0.00 | 0.00 | 87 | 1024.5 |
| 20260508134558 | -1 | 198 | 0.0 | 0.0 | 0.00 | 0.00 | 0.00 | 88 | 1024.6 |
| 20260508133103 | -1 | 198 | 0.0 | 0.0 | 0.00 | 0.00 | 0.00 | 88 | 1024.7 |
| 20260508131559 | 0 | 197 | 0.0 | 0.0 | 0.00 | 0.00 | 0.00 | 88 | 1024.7 |
| 20260508130106 | 0 | 197 | 0.0 | 0.0 | 0.00 | 0.00 | 0.00 | 88 | 1024.6 |
| 20260508124555 | 0 | 197 | 0.0 | 0.0 | 0.00 | 0.00 | 0.00 | 88 | 1024.7 |
| 20260508123059 | 0 | 197 | 0.0 | 0.0 | 0.00 | 0.00 | 0.00 | 88 | 1024.7 |
| 20260508121619 | 0 | 197 | 0.0 | 0.0 | 0.00 | 0.00 | 0.00 | 88 | 1024.8 |
| 20260508120053 | 1 | 198 | 0.0 | 3.2 | 0.00 | 0.00 | 0.00 | 88 | 1024.8 |
| 20260508114554 | 1 | 197 | 0.0 | 0.0 | 0.00 | 0.00 | 0.00 | 88 | 1024.8 |
| 20260508113051 | 1 | 198 | 1.6 | 3.2 | 0.00 | 0.00 | 0.00 | 88 | 1024.7 |
| 20260508111552 | 1 | 198 | 0.0 | 0.0 | 0.00 | 0.00 | 0.00 | 88 | 1024.5 |
| 20260508110049 | 1 | 198 | 1.6 | 3.2 | 0.00 | 0.00 | 0.00 | 88 | 1024.3 |
| 20260508104554 | 2 | 197 | 1.6 | 3.2 | 0.00 | 0.00 | 0.00 | 87 | 1024.0 |
| 20260508103048 | 2 | 199 | 1.6 | 4.8 | 0.00 | 0.00 | 0.00 | 86 | 1023.8 |
| 20260508101547 | 2 | 186 | 1.6 | 4.8 | 0.00 | 0.00 | 0.00 | 87 | 1023.6 |
| 20260508100042 | 2 | 156 | 3.2 | 6.4 | 0.00 | 0.00 | 0.00 | 84 | 1023.6 |
| 20260508094547 | 3 | 216 | 0.0 | 3.2 | 0.00 | 0.00 | 0.00 | 82 | 1023.4 |
| 20260508093046 | 4 | 216 | 1.6 | 3.2 | 0.00 | 0.00 | 0.00 | 82 | 1023.4 |
| 20260508091550 | 5 | 215 | 0.0 | 3.2 | 0.00 | 0.00 | 0.00 | 79 | 1023.3 |
| 20260508090051 | 6 | 215 | 1.6 | 3.2 | 0.00 | 0.00 | 0.00 | 78 | 1023.1 |
| 20260508084535 | 6 | 215 | 0.0 | 4.8 | 0.00 | 0.00 | 0.00 | 77 | 1022.7 |
| 20260508083033 | 6 | 217 | 0.0 | 0.0 | 0.00 | 0.00 | 0.00 | 76 | 1022.2 |
| 20260508081540 | 7 | 216 | 1.6 | 8.0 | 0.00 | 0.00 | 0.00 | 76 | 1022.2 |
| 20260508080040 | 7 | 230 | 3.2 | 8.0 | 0.00 | 0.00 | 0.00 | 75 | 1022.0 |
| 20260508074631 | 7 | 268 | 0.0 | 9.7 | 0.00 | 0.00 | 0.00 | 74 | 1021.9 |
| 20260508073034 | 7 | 241 | 3.2 | 16.1 | 0.00 | 0.00 | 0.00 | 73 | 1021.7 |
| 20260508071534 | 8 | 275 | 8.0 | 20.9 | 0.00 | 0.00 | 0.00 | 72 | 1021.6 |
| 20260508070041 | 8 | 245 | 8.0 | 19.3 | 0.00 | 0.00 | 0.00 | 70 | 1021.3 |
| 20260508064534 | 9 | 289 | 6.4 | 19.3 | 0.00 | 0.00 | 0.00 | 68 | 1021.3 |
| 20260508063029 | 10 | 243 | 8.0 | 19.3 | 0.00 | 0.00 | 0.00 | 67 | 1021.6 |
| 20260508061526 | 10 | 239 | 4.8 | 16.1 | 0.00 | 0.00 | 0.00 | 67 | 1021.5 |
| 20260508060033 | 10 | 224 | 8.0 | 19.3 | 0.00 | 0.00 | 0.00 | 66 | 1021.3 |
| 20260508054530 | 10 | 220 | 9.7 | 19.3 | 0.00 | 0.00 | 0.00 | 65 | 1021.4 |